When you browse on this site, cookies collect data to enhance your experience and personalize the content and advertising you see.
Visit our Privacy Policy to learn more. By continuing to use the site, you agree to this use of cookies and data.

Meteo pe oră la Dziecmierowo

Astăzi, 23 Septembrie, Miercuri

Timp Temperatura Precipitaţii Vânt Presiune Umiditate
00:00 +18°C° 0 mm 3 m/s 749 mmHg 63%
01:00 +17°C° 0 mm 3 m/s 749 mmHg 65%
02:00 +17°C° 0 mm 3 m/s 749 mmHg 65%
03:00 +17°C° 0 mm 3 m/s 749 mmHg 66%
04:00 +16°C° 0 mm 3 m/s 748 mmHg 66%
05:00 +17°C° 0 mm 3 m/s 748 mmHg 66%
06:00 +17°C° 0 mm 3 m/s 748 mmHg 65%
07:00 +17°C° 0 mm 3 m/s 748 mmHg 65%
08:00 +19°C° 0 mm 3 m/s 748 mmHg 60%
09:00 +21°C° 0 mm 4 m/s 748 mmHg 55%
10:00 +23°C° 0 mm 4 m/s 748 mmHg 50%
11:00 +25°C° 0 mm 4 m/s 748 mmHg 47%
12:00 +26°C° 0 mm 5 m/s 747 mmHg 45%
13:00 +27°C° 0 mm 5 m/s 747 mmHg 43%
14:00 +27°C° 0 mm 4 m/s 747 mmHg 45%
15:00 +27°C° 0 mm 4 m/s 747 mmHg 48%
16:00 +26°C° 0 mm 3 m/s 746 mmHg 50%
17:00 +25°C° 0 mm 3 m/s 746 mmHg 56%
18:00 +22°C° 0 mm 3 m/s 746 mmHg 62%
19:00 +20°C° 0 mm 3 m/s 747 mmHg 68%
20:00 +20°C° 0 mm 3 m/s 747 mmHg 70%
21:00 +19°C° 0 mm 3 m/s 746 mmHg 73%
22:00 +19°C° 0 mm 3 m/s 746 mmHg 75%
23:00 +18°C° 0 mm 3 m/s 746 mmHg 77%

Mâine, 24 Septembrie, Joi

Timp Temperatura Precipitaţii Vânt Presiune Umiditate
00:00 +18°C° 0 mm 3 m/s 746 mmHg 80%
01:00 +17°C° 0 mm 2 m/s 746 mmHg 82%
02:00 +17°C° 0 mm 2 m/s 746 mmHg 85%
03:00 +16°C° 0 mm 2 m/s 746 mmHg 87%
04:00 +16°C° 0 mm 2 m/s 746 mmHg 89%
05:00 +16°C° 0.2 mm 3 m/s 747 mmHg 86%
06:00 +17°C° 0.2 mm 3 m/s 747 mmHg 84%
07:00 +17°C° 0.2 mm 3 m/s 747 mmHg 81%
08:00 +19°C° 0 mm 3 m/s 747 mmHg 73%
09:00 +20°C° 0 mm 3 m/s 747 mmHg 65%
10:00 +22°C° 0 mm 4 m/s 747 mmHg 57%
11:00 +23°C° 0 mm 4 m/s 747 mmHg 54%
12:00 +25°C° 0 mm 4 m/s 747 mmHg 50%
13:00 +26°C° 0 mm 4 m/s 747 mmHg 47%
14:00 +26°C° 0 mm 3 m/s 747 mmHg 47%
15:00 +26°C° 0 mm 3 m/s 747 mmHg 47%
16:00 +26°C° 0 mm 2 m/s 747 mmHg 48%
17:00 +24°C° 0.1 mm 2 m/s 747 mmHg 54%
18:00 +23°C° 0.1 mm 2 m/s 747 mmHg 60%
19:00 +20°C° 0.1 mm 2 m/s 747 mmHg 67%
20:00 +19°C° 0 mm 2 m/s 747 mmHg 70%
21:00 +19°C° 0 mm 1 m/s 747 mmHg 74%
22:00 +19°C° 0 mm 1 m/s 747 mmHg 78%
23:00 +18°C° 0 mm 1 m/s 746 mmHg 78%

Poimâine, 25 Septembrie, Vineri

Timp Temperatura Precipitaţii Vânt Presiune Umiditate
00:00 +18°C° 0 mm 1 m/s 746 mmHg 79%
01:00 +17°C° 0 mm 2 m/s 746 mmHg 80%
02:00 +17°C° 0 mm 2 m/s 745 mmHg 80%
03:00 +16°C° 0 mm 2 m/s 745 mmHg 81%
04:00 +16°C° 0 mm 2 m/s 744 mmHg 81%
05:00 +16°C° 0 mm 3 m/s 743 mmHg 80%
06:00 +17°C° 0 mm 4 m/s 743 mmHg 78%
07:00 +17°C° 0 mm 4 m/s 742 mmHg 77%
08:00 +19°C° 0 mm 5 m/s 742 mmHg 71%
09:00 +21°C° 0 mm 6 m/s 741 mmHg 64%
10:00 +22°C° 0 mm 7 m/s 740 mmHg 57%
11:00 +21°C° 0.4 mm 7 m/s 740 mmHg 65%
12:00 +20°C° 0.4 mm 6 m/s 740 mmHg 72%
13:00 +19°C° 0.4 mm 5 m/s 739 mmHg 80%
14:00 +17°C° 1.1 mm 5 m/s 739 mmHg 82%
15:00 +15°C° 1.1 mm 5 m/s 739 mmHg 85%
16:00 +14°C° 1.1 mm 5 m/s 739 mmHg 88%
17:00 +14°C° 0.2 mm 5 m/s 739 mmHg 88%
18:00 +14°C° 0.2 mm 5 m/s 740 mmHg 88%
19:00 +14°C° 0.2 mm 5 m/s 740 mmHg 87%
20:00 +13°C° 0 mm 4 m/s 740 mmHg 87%
21:00 +13°C° 0 mm 4 m/s 741 mmHg 86%
22:00 +13°C° 0 mm 4 m/s 741 mmHg 86%
23:00 +13°C° 0 mm 4 m/s 741 mmHg 84%

26 Septembrie, Sâmbătă

Timp Temperatura Precipitaţii Vânt Presiune Umiditate
00:00 +12°C° 0 mm 4 m/s 742 mmHg 83%
01:00 +12°C° 0 mm 4 m/s 742 mmHg 82%
02:00 +12°C° 0 mm 3 m/s 742 mmHg 81%
03:00 +11°C° 0 mm 3 m/s 742 mmHg 80%
04:00 +11°C° 0 mm 3 m/s 742 mmHg 79%
05:00 +11°C° 0.1 mm 3 m/s 742 mmHg 79%
06:00 +11°C° 0.1 mm 4 m/s 742 mmHg 78%
07:00 +11°C° 0.1 mm 4 m/s 741 mmHg 77%
08:00 +10°C° 1.3 mm 5 m/s 741 mmHg 80%
09:00 +10°C° 1.3 mm 5 m/s 741 mmHg 83%
10:00 +9°C° 1.3 mm 6 m/s 741 mmHg 85%
11:00 +9°C° 4 mm 6 m/s 741 mmHg 87%
12:00 +9°C° 4 mm 7 m/s 741 mmHg 89%
13:00 +9°C° 4 mm 7 m/s 741 mmHg 91%
14:00 +10°C° 2.3 mm 8 m/s 741 mmHg 91%
15:00 +10°C° 2.3 mm 8 m/s 741 mmHg 91%
16:00 +10°C° 2.3 mm 9 m/s 741 mmHg 90%
17:00 +10°C° 0.7 mm 9 m/s 741 mmHg 90%
18:00 +10°C° 0.7 mm 9 m/s 741 mmHg 90%
19:00 +10°C° 0.7 mm 8 m/s 741 mmHg 90%
20:00 +10°C° 0.4 mm 8 m/s 741 mmHg 90%
21:00 +10°C° 0.4 mm 8 m/s 741 mmHg 90%
22:00 +10°C° 0.4 mm 8 m/s 740 mmHg 90%
23:00 +10°C° 2.6 mm 8 m/s 740 mmHg 91%

27 Septembrie, Duminică

Timp Temperatura Precipitaţii Vânt Presiune Umiditate
00:00 +10°C° 2.6 mm 9 m/s 739 mmHg 92%
01:00 +10°C° 2.6 mm 9 m/s 739 mmHg 93%
02:00 +10°C° 4.4 mm 9 m/s 739 mmHg 93%
03:00 +10°C° 4.4 mm 9 m/s 739 mmHg 93%
04:00 +9°C° 4.4 mm 10 m/s 739 mmHg 93%
05:00 +9°C° 1.6 mm 10 m/s 739 mmHg 93%
06:00 +9°C° 1.6 mm 10 m/s 740 mmHg 92%
07:00 +9°C° 1.6 mm 11 m/s 740 mmHg 91%
08:00 +9°C° 1 mm 11 m/s 740 mmHg 90%
09:00 +8°C° 1 mm 11 m/s 741 mmHg 89%
10:00 +7°C° 1 mm 11 m/s 741 mmHg 88%
11:00 +7°C° 0.9 mm 11 m/s 741 mmHg 88%
12:00 +6°C° 0.9 mm 10 m/s 742 mmHg 88%
13:00 +6°C° 0.9 mm 10 m/s 742 mmHg 87%
14:00 +6°C° 0.4 mm 10 m/s 742 mmHg 87%
15:00 +6°C° 0.4 mm 10 m/s 742 mmHg 86%
16:00 +6°C° 0.4 mm 10 m/s 742 mmHg 86%
17:00 +6°C° 0.2 mm 10 m/s 742 mmHg 86%
18:00 +6°C° 0.2 mm 9 m/s 742 mmHg 86%
19:00 +7°C° 0.2 mm 9 m/s 742 mmHg 86%
20:00 +7°C° 0.2 mm 8 m/s 742 mmHg 87%
21:00 +7°C° 0.2 mm 8 m/s 742 mmHg 88%
22:00 +7°C° 0.2 mm 8 m/s 742 mmHg 89%
23:00 +7°C° 1 mm 8 m/s 742 mmHg 89%

28 Septembrie, Luni

Timp Temperatura Precipitaţii Vânt Presiune Umiditate
00:00 +7°C° 1 mm 9 m/s 741 mmHg 90%
01:00 +7°C° 1 mm 9 m/s 741 mmHg 90%
02:00 +7°C° 2.7 mm 9 m/s 741 mmHg 91%
03:00 +7°C° 2.7 mm 9 m/s 741 mmHg 91%
04:00 +7°C° 2.7 mm 9 m/s 741 mmHg 92%
05:00 +7°C° 1.4 mm 9 m/s 741 mmHg 91%
06:00 +7°C° 1.4 mm 9 m/s 741 mmHg 91%
07:00 +7°C° 1.4 mm 9 m/s 741 mmHg 91%
08:00 +7°C° 0.8 mm 8 m/s 742 mmHg 90%
09:00 +7°C° 0.8 mm 8 m/s 742 mmHg 90%
10:00 +7°C° 0.8 mm 8 m/s 742 mmHg 89%
11:00 +7°C° 0.6 mm 8 m/s 743 mmHg 89%
12:00 +7°C° 0.6 mm 8 m/s 743 mmHg 89%
13:00 +8°C° 0.6 mm 7 m/s 743 mmHg 89%
14:00 +8°C° 0.5 mm 7 m/s 744 mmHg 89%
15:00 +8°C° 0.5 mm 7 m/s 744 mmHg 89%
16:00 +8°C° 0.5 mm 6 m/s 744 mmHg 89%
17:00 +8°C° 0.2 mm 6 m/s 744 mmHg 89%
18:00 +7°C° 0.2 mm 5 m/s 744 mmHg 89%
19:00 +7°C° 0.2 mm 5 m/s 745 mmHg 89%
20:00 +8°C° 0.1 mm 4 m/s 745 mmHg 90%
21:00 +9°C° 0.1 mm 3 m/s 745 mmHg 92%
22:00 +9°C° 0.1 mm 2 m/s 745 mmHg 93%
23:00 +9°C° 0.2 mm 2 m/s 745 mmHg 94%
Arată mai mult